1409190627916,0.000183407
1409190687916,0.000183584
1409190747916,0.000186333
1409190807916,0.000185967
1409190867916,0.000183138
1409190927916,0.000186348
1409190987916,0.000184485
1409191047916,0.000185341
1409191107916,0.000184188
1409191167916,0.000185402
1409191227916,0.000184968
1409191287916,0.000185138
1409191347916,0.000186152
1409191407916,0.000187239
1409191467916,0.000186080
1409191527916,0.000184705
1409191587916,0.000186851
1409191647916,0.000186541
1409191707916,0.000188605
1409191767916,0.000186059
1409191827916,0.000186755
1409191887916,0.000184567
1409191947916,0.000185344
1409192007916,0.000185895
1409192067916,0.000187401
1409192127916,0.000185911
1409192187916,0.000185765
1409192247916,0.000187217
1409192307916,0.000186956
1409192367916,0.000188086
1409192427916,0.000186879
1409192487916,0.000185207
1409192547916,0.000186779
1409192607916,0.000187426
1409192667916,0.000186350
1409192727916,0.000186420
1409192787916,0.000187049
1409192847916,0.000184565
1409192907916,0.000184091
1409192967916,0.000188192
1409193027916,0.000185910
1409193087916,0.000186859
1409193147916,0.000187268
1409193207916,0.000185331
1409193267916,0.000186164
1409193327916,0.000185281
1409193387916,0.000184214
1409193447916,0.000185751
1409193507916,0.000184160
1409193567916,0.000186531
1409193627916,0.000186304
1409193687916,0.000188066
1409193747916,0.000185701
1409193807916,0.000186256
1409193867916,0.000185103
1409193927916,0.000187042
1409193987916,0.000187399
1409194047916,0.000186613
1409194107916,0.000186514
1409194167916,0.000188814
1409194227916,0.000188376
1409194287916,0.000186390
1409194347916,0.000187325
1409194407916,0.000188601
1409194467916,0.000188182
1409194527916,0.000188091
1409194587916,0.000186624
1409194647916,0.000187940
1409194707916,0.000187808
1409194767916,0.000187554
1409194827917,0.000186150
1409194887917,0.000185016
1409194947917,0.000186302
1409195007917,0.000185700
1409195067917,0.000186190
1409195127917,0.000186599
1409195187917,0.000186841
1409195247917,0.000187423
1409195307917,0.000188595
1409195367917,0.000186885
1409195427917,0.000189100
1409195487917,0.000188780
1409195547917,0.000188056
1409195607917,0.000186184
1409195667917,0.000187673
1409195727917,0.000186968
1409195787917,0.000186501
1409195847917,0.000187130
1409195907917,0.000187342
1409195967917,0.000187806
1409196027917,0.000188141
1409196087917,0.000188291
1409196147917,0.000187602
1409196207917,0.000185062
1409196267917,0.000186691
1409196327917,0.000185444
1409196387917,0.000185759
1409196447917,0.000184677
1409196507917,0.000186126
1409196567917,0.000185032
1409196627917,0.000185386
1409196687917,0.000185707
1409196747917,0.000183976
1409196807917,0.000186237
1409196867917,0.000184453
1409196927917,0.000186548
1409196987917,0.000184847
1409197047917,0.000185243
1409197107917,0.000185776
1409197167917,0.000185288
1409197227917,0.000185469
1409197287917,0.000185300
1409197347917,0.000184482
1409197407917,0.000185388
1409197467917,0.000184870
1409197527917,0.000185395
1409197587917,0.000183855
1409197647917,0.000186199
1409197707917,0.000186387
1409197767917,0.000185524
1409197827917,0.000184519
1409197887917,0.000185731
1409197947917,0.000185151
1409198007917,0.000184530
1409198067917,0.000186042
1409198127917,0.000185442
1409198187917,0.000186081
1409198247917,0.000186082
1409198307917,0.000185709
1409198367917,0.000186222
1409198427918,0.000187706
1409198487918,0.000187277
1409198547918,0.000187154
1409198607918,0.000188028
1409198667918,0.000187782
1409198727918,0.000185791
1409198787918,0.000186919
1409198847918,0.000187139
1409198907918,0.000187493
1409198967918,0.000187860
1409199027918,0.000188032
1409199087918,0.000186804
1409199147918,0.000188161
1409199207918,0.000188450
1409199267918,0.000186276
1409199327918,0.000188086
1409199387918,0.000189447
1409199447918,0.000189972
1409199507918,0.000188197
1409199567918,0.000188538
1409199627918,0.000186963
1409199687918,0.000189178
1409199747918,0.000189892
1409199807918,0.000190202
1409199867918,0.000188985
1409199927918,0.000188245
1409199987918,0.000188516
1409200047918,0.000186858
1409200107918,0.000188289
1409200167918,0.000188245
1409200227918,0.000189098
1409200287918,0.000187348
1409200347918,0.000187336
1409200407918,0.000188557
1409200467918,0.000189822
1409200527918,0.000187401
1409200587918,0.000189180
1409200647918,0.000190234
1409200707918,0.000187536
1409200767918,0.000189744
1409200827918,0.000189282
1409200887918,0.000189584
1409200947918,0.000187736
1409201007918,0.000189411
1409201067918,0.000188745
1409201127918,0.000188525
1409201187918,0.000188460
1409201247918,0.000187820
1409201307918,0.000189455
1409201367918,0.000188915
1409201427918,0.000191233
1409201487918,0.000189856
1409201547918,0.000189725
1409201607918,0.000189322
1409201667918,0.000189069
